Location: Unspecified
(0.0000°N, 0.0000°E)
Time: 03:30:11
(UTC+00:00)

N. Korean satellite - Pass Details

Date: 02 February 2021
Orbit: 451 x 502 km, 97.2° (Epoch: 07 March)

Event Time Altitude Azimuth Distance (km) Brightness Sun altitude
Rises 04:29:36 0° 33° (NNE) 2,445 10.3 -24.8°
Reaches altitude 10° 04:31:56 10° 49° (NE) 1,580 9.5 -24.3°
Maximum altitude 04:34:36 22° 101° (E) 1,047 9.0 -23.7°
Drops below altitude 10° 04:37:18 10° 154° (SSE) 1,599 9.7 -23.0°
Sets 04:39:40 0° 169° (S) 2,484 10.6 -22.5°
